When you browse on this site, cookies collect data to enhance your experience and personalize the content and advertising you see.
Visit our Privacy Policy to learn more. By continuing to use the site, you agree to this use of cookies and data.
  • In Hungary
  • List of Countries
  • For 7 days
  • Water Temperature
  • Satellite Maps
  • Weather Map
  • News
  • Weather Widgets
  • user-avatar
    Login

    Hourly Weather Harkovka

    Today, 21 January, Monday

    Time Temperature Precipitation Wind Pressure Humidity
    00:00 -18°C° 0 mm 3 mps 744 mmHg 93%
    01:00 -19°C° 0 mm 3 mps 745 mmHg 93%
    02:00 -19°C° 0 mm 3 mps 745 mmHg 94%
    03:00 -19°C° 0 mm 2 mps 746 mmHg 95%
    04:00 -18°C° 0 mm 2 mps 746 mmHg 94%
    05:00 -19°C° 0 mm 2 mps 746 mmHg 95%
    06:00 -19°C° 0 mm 2 mps 747 mmHg 97%
    07:00 -20°C° 0 mm 2 mps 747 mmHg 98%
    08:00 -19°C° 0 mm 2 mps 747 mmHg 98%
    09:00 -18°C° 0 mm 2 mps 748 mmHg 97%
    10:00 -17°C° 0 mm 2 mps 748 mmHg 97%
    11:00 -16°C° 0 mm 2 mps 748 mmHg 96%
    12:00 -16°C° 0 mm 2 mps 748 mmHg 96%
    13:00 -16°C° 0 mm 3 mps 749 mmHg 95%
    14:00 -17°C° 0 mm 3 mps 748 mmHg 95%
    15:00 -17°C° 0 mm 3 mps 748 mmHg 95%
    16:00 -18°C° 0 mm 3 mps 748 mmHg 95%
    17:00 -18°C° 0 mm 3 mps 748 mmHg 94%
    18:00 -19°C° 0 mm 3 mps 748 mmHg 94%
    19:00 -20°C° 0 mm 4 mps 747 mmHg 94%
    20:00 -20°C° 0 mm 4 mps 747 mmHg 92%
    21:00 -19°C° 0 mm 4 mps 747 mmHg 91%
    22:00 -20°C° 0 mm 5 mps 746 mmHg 90%
    23:00 -19°C° 0 mm 5 mps 746 mmHg 87%

    Tomorrow, 22 January, Tuesday

    Time Temperature Precipitation Wind Pressure Humidity
    00:00 -18°C° 0 mm 6 mps 745 mmHg 84%
    01:00 -18°C° 0 mm 7 mps 745 mmHg 81%
    02:00 -17°C° 0 mm 7 mps 744 mmHg 79%
    03:00 -17°C° 0 mm 8 mps 744 mmHg 78%
    04:00 -16°C° 0 mm 8 mps 743 mmHg 76%
    05:00 -16°C° 0.1 mm 8 mps 743 mmHg 80%
    06:00 -15°C° 0.1 mm 9 mps 742 mmHg 84%
    07:00 -15°C° 0.1 mm 9 mps 741 mmHg 87%
    08:00 -12°C° 0.6 mm 9 mps 741 mmHg 89%
    09:00 -11°C° 0.6 mm 9 mps 740 mmHg 91%
    10:00 -10°C° 0.6 mm 9 mps 740 mmHg 93%
    11:00 -9°C° 0.6 mm 9 mps 740 mmHg 93%
    12:00 -8°C° 0.6 mm 10 mps 739 mmHg 92%
    13:00 -5°C° 0.6 mm 10 mps 739 mmHg 92%
    14:00 -5°C° 0.7 mm 10 mps 739 mmHg 92%
    15:00 -5°C° 0.7 mm 9 mps 739 mmHg 92%
    16:00 -4°C° 0.7 mm 9 mps 739 mmHg 92%
    17:00 -7°C° 0.3 mm 7 mps 740 mmHg 91%
    18:00 -9°C° 0.3 mm 6 mps 740 mmHg 90%
    19:00 -12°C° 0.3 mm 5 mps 740 mmHg 89%
    20:00 -15°C° 0 mm 4 mps 741 mmHg 92%
    21:00 -16°C° 0 mm 3 mps 741 mmHg 95%
    22:00 -19°C° 0 mm 3 mps 742 mmHg 98%
    23:00 -19°C° 0 mm 3 mps 742 mmHg 98%

    Day after tomorrow, 23 January, Wednesday

    Time Temperature Precipitation Wind Pressure Humidity
    00:00 -19°C° 0 mm 2 mps 743 mmHg 99%
    01:00 -19°C° 0 mm 2 mps 743 mmHg 99%
    02:00 -20°C° 0 mm 2 mps 744 mmHg 99%
    03:00 -20°C° 0 mm 2 mps 744 mmHg 99%
    04:00 -21°C° 0 mm 2 mps 745 mmHg 99%
    05:00 -21°C° 0 mm 2 mps 745 mmHg 99%
    06:00 -21°C° 0 mm 2 mps 745 mmHg 99%
    07:00 -23°C° 0 mm 2 mps 745 mmHg 99%
    08:00 -19°C° 0 mm 1 mps 746 mmHg 99%
    09:00 -19°C° 0 mm 1 mps 746 mmHg 98%
    10:00 -19°C° 0 mm 1 mps 747 mmHg 98%
    11:00 -21°C° 0 mm 2 mps 747 mmHg 97%
    12:00 -20°C° 0 mm 2 mps 747 mmHg 96%
    13:00 -19°C° 0 mm 2 mps 747 mmHg 96%
    14:00 -20°C° 0 mm 2 mps 748 mmHg 96%
    15:00 -21°C° 0 mm 2 mps 748 mmHg 97%
    16:00 -23°C° 0 mm 2 mps 748 mmHg 98%
    17:00 -24°C° 0 mm 2 mps 749 mmHg 98%
    18:00 -25°C° 0 mm 2 mps 749 mmHg 99%
    19:00 -26°C° 0 mm 2 mps 750 mmHg 99%
    20:00 -26°C° 0 mm 2 mps 750 mmHg 99%
    21:00 -27°C° 0 mm 2 mps 751 mmHg 99%
    22:00 -27°C° 0 mm 2 mps 751 mmHg 99%
    23:00 -27°C° 0 mm 2 mps 751 mmHg 99%

    24 January, Thursday

    Time Temperature Precipitation Wind Pressure Humidity
    00:00 -25°C° 0 mm 1 mps 752 mmHg 99%
    01:00 -25°C° 0 mm 1 mps 752 mmHg 99%
    02:00 -25°C° 0 mm 1 mps 752 mmHg 98%
    03:00 -25°C° 0 mm 1 mps 753 mmHg 97%
    04:00 -25°C° 0 mm 1 mps 753 mmHg 97%
    05:00 -27°C° 0 mm 1 mps 753 mmHg 97%
    06:00 -27°C° 0 mm 1 mps 754 mmHg 97%
    07:00 -27°C° 0 mm 1 mps 754 mmHg 97%
    08:00 -25°C° 0 mm 1 mps 754 mmHg 95%
    09:00 -24°C° 0 mm 1 mps 755 mmHg 93%
    10:00 -23°C° 0 mm 1 mps 755 mmHg 92%
    11:00 -22°C° 0 mm 1 mps 755 mmHg 91%
    12:00 -20°C° 0 mm 1 mps 755 mmHg 90%
    13:00 -19°C° 0 mm 1 mps 755 mmHg 89%
    14:00 -20°C° 0 mm 2 mps 755 mmHg 88%
    15:00 -20°C° 0 mm 2 mps 755 mmHg 87%
    16:00 -22°C° 0 mm 3 mps 754 mmHg 86%
    17:00 -21°C° 0 mm 3 mps 754 mmHg 84%
    18:00 -20°C° 0 mm 4 mps 754 mmHg 83%
    19:00 -19°C° 0 mm 4 mps 754 mmHg 81%
    20:00 -20°C° 0 mm 5 mps 754 mmHg 80%
    21:00 -19°C° 0 mm 5 mps 754 mmHg 79%
    22:00 -18°C° 0 mm 6 mps 753 mmHg 78%
    23:00 -18°C° 0 mm 6 mps 753 mmHg 77%

    25 January, Friday

    Time Temperature Precipitation Wind Pressure Humidity
    00:00 -18°C° 0 mm 6 mps 752 mmHg 77%
    01:00 -18°C° 0 mm 7 mps 752 mmHg 76%
    02:00 -18°C° 0 mm 7 mps 751 mmHg 75%
    03:00 -18°C° 0 mm 7 mps 751 mmHg 75%
    04:00 -18°C° 0 mm 7 mps 750 mmHg 74%
    05:00 -18°C° 0 mm 7 mps 750 mmHg 74%
    06:00 -18°C° 0 mm 7 mps 749 mmHg 75%
    07:00 -18°C° 0 mm 7 mps 749 mmHg 76%
    08:00 -18°C° 0 mm 7 mps 749 mmHg 77%
    09:00 -18°C° 0 mm 7 mps 749 mmHg 79%
    10:00 -18°C° 0 mm 7 mps 749 mmHg 81%
    11:00 -16°C° 0 mm 6 mps 748 mmHg 83%
    12:00 -16°C° 0 mm 6 mps 748 mmHg 85%
    13:00 -14°C° 0 mm 5 mps 748 mmHg 87%
    14:00 -14°C° 0 mm 5 mps 747 mmHg 89%
    15:00 -14°C° 0 mm 4 mps 747 mmHg 90%
    16:00 -14°C° 0 mm 4 mps 747 mmHg 92%
    17:00 -14°C° 0 mm 4 mps 747 mmHg 93%
    18:00 -13°C° 0 mm 3 mps 747 mmHg 94%
    19:00 -13°C° 0 mm 3 mps 747 mmHg 94%
    20:00 -13°C° 0 mm 3 mps 747 mmHg 95%
    21:00 -14°C° 0 mm 3 mps 746 mmHg 95%
    22:00 -14°C° 0 mm 3 mps 746 mmHg 95%
    23:00 -14°C° 0 mm 3 mps 746 mmHg 95%

    26 January, Saturday

    Time Temperature Precipitation Wind Pressure Humidity
    00:00 -14°C° 0 mm 3 mps 746 mmHg 96%
    01:00 -14°C° 0 mm 3 mps 746 mmHg 96%
    02:00 -13°C° 0 mm 3 mps 745 mmHg 96%
    03:00 -13°C° 0 mm 3 mps 745 mmHg 96%
    04:00 -13°C° 0 mm 3 mps 745 mmHg 96%
    05:00 -12°C° 0 mm 3 mps 745 mmHg 96%
    06:00 -12°C° 0 mm 3 mps 744 mmHg 96%
    07:00 -10°C° 0 mm 3 mps 744 mmHg 96%
    08:00 -10°C° 0 mm 3 mps 744 mmHg 95%
    09:00 -10°C° 0 mm 3 mps 744 mmHg 95%
    10:00 -10°C° 0 mm 3 mps 744 mmHg 94%
    11:00 -10°C° 0 mm 4 mps 743 mmHg 93%
    12:00 -9°C° 0 mm 4 mps 743 mmHg 91%
    13:00 -8°C° 0 mm 5 mps 742 mmHg 89%
    14:00 -7°C° 0 mm 5 mps 741 mmHg 89%
    15:00 -7°C° 0 mm 5 mps 741 mmHg 89%
    16:00 -7°C° 0 mm 5 mps 740 mmHg 89%
    17:00 -7°C° 0 mm 5 mps 740 mmHg 89%
    18:00 -7°C° 0 mm 5 mps 740 mmHg 89%
    19:00 -7°C° 0 mm 5 mps 740 mmHg 88%
    20:00 -8°C° 0 mm 5 mps 739 mmHg 89%
    21:00 -9°C° 0 mm 4 mps 739 mmHg 89%
    22:00 -9°C° 0 mm 4 mps 739 mmHg 89%
    23:00 -9°C° 0 mm 3 mps 739 mmHg 90%
    Show more